Location: Igon
(43.1667°N, 0.2333°W)
Time: 04:20:44
(UTC+00:00)

NOAA 16 DEB - Pass Details

Date: 22 June 2021
Orbit: 682 x 809 km, 98.9° (Epoch: 03 August)

Event Time Altitude Azimuth Distance (km) Brightness Sun altitude
Rises 03:07:28 0° 140° (SE) 3,314 ? -11.1°
Reaches altitude 10° 03:09:57 10° 131° (SE) 2,392 ? -10.7°
Maximum altitude 03:14:45 36° 67° (ENE) 1,272 ? -10.1°
Drops below altitude 10° 03:19:32 10° 3° (N) 2,393 ? -9.5°
Sets 03:22:01 0° 355° (N) 3,316 ? -9.2°
